Vertical_Velocity
0 0 0 0 0 -0 -0 0 1 2 1 1 0 0 0 -0 -1 -0 -0 0 -0 -0 -0 0 -0 -1 -2 -2 -2 -1 -1 -1 -1 -1 -1 -2 -2 -2 -2 -1 -0 -0 -1 -1 -1 -2 -1 0 1 -0 -2 -3 -2 -2 -1 -1 -2 -2 -1 2 4 3 1 -1 -2 -1 0 1 2
-1 -0 0 1 1 1 0 -0 1 1 2 2 2 1 1 0 -0 -1 -1 -0 0 0 0 -0 -0 -1 -2 -3 -2 -1 -0 0 -0 -1 -2 -3 -3 -3 -2 -1 -0 0 0 -0 -1 -1 -1 -1 -1 -1 -2 -2 -2 -2 -2 -2 -2 -2 -0 2 2 1 -1 -2 -2 -2 -1 -1 0
-1 -1 -1 -0 0 -0 -1 -1 -1 0 1 1 2 2 1 0 -0 -0 -0 -0 1 1 1 -0 -1 -2 -3 -4 -3 -0 2 4 3 2 -1 -3 -4 -3 -2 -1 0 1 1 0 0 -0 -1 -1 -1 -1 -1 -1 -2 -2 -3 -3 -1 1 2 1 0 -0 -1 -2 -2 -2 -2 -3 -1
-0 -1 -1 -1 -1 -0 -0 -1 -1 -0 0 1 1 1 1 1 1 1 0 -0 0 0 1 0 -1 -3 -3 -3 -1 2 6 9 8 5 1 -3 -4 -4 -3 -1 0 0 -0 0 0 -0 -0 -0 -0 -0 -1 -1 -2 -2 -3 -2 1 2 3 1 1 1 0 -1 -2 -2 -2 -3 -2
-0 0 0 -0 0 0 1 1 1 0 0 0 0 0 0 1 1 1 1 0 0 0 -0 -0 -1 -2 -2 -1 2 6 11 14 11 6 0 -4 -4 -3 -3 -2 -0 -0 -0 -0 -0 -0 -0 0 0 -0 -0 -1 -1 -1 -1 -0 1 1 2 2 3 2 1 -0 -1 -1 -1 -2 -1
-0 0 1 1 1 1 1 1 1 1 0 -0 -0 -0 -0 -0 0 0 1 1 0 -1 -2 -1 -1 -1 -1 -0 6 13 18 17 8 1 -3 -4 -4 -3 -3 -2 -1 -0 0 1 1 1 0 0 -0 -0 -0 -0 -1 -1 -0 1 -0 -0 0 2 3 2 1 -0 -0 -0 -0 -0 0
1 1 1 1 0 0 0 0 0 -0 -1 -1 -1 -1 -1 -1 -1 0 1 0 -2 -2 -2 -1 -2 -2 -1 2 11 16 16 8 0 -3 -4 -4 -3 -3 -2 -2 -2 0 2 4 4 2 1 1 1 -0 -1 -0 -1 -1 0 2 1 -0 -1 0 2 2 1 -0 0 0 0 0 1
2 1 1 0 -0 -0 -1 -1 -1 -2 -2 -1 -1 -1 -2 -1 -1 -1 -1 -2 -2 -1 -1 -1 -2 -1 2 7 12 11 5 -3 -6 -6 -4 -3 -3 -2 -2 -2 -1 1 4 7 6 4 1 0 1 0 -1 -2 -1 -0 1 3 2 1 0 0 1 1 2 1 1 2 2 1 0
1 0 -0 -1 -1 -1 -1 -1 -1 -2 -2 -1 -1 -1 -1 -1 -1 -2 -2 -2 -1 -1 -1 -2 -2 -0 3 8 7 2 -4 -6 -6 -4 -3 -1 -1 -2 -2 -1 -0 1 2 4 3 2 0 -0 0 1 1 0 -0 -1 -0 2 1 1 1 1 0 0 1 2 3 2 2 1 -1
-1 -1 -2 -2 -2 -1 -1 -2 -2 -2 -2 -2 -2 -1 -1 -1 -2 -2 -2 -0 -1 -1 -1 -1 -1 1 3 3 -1 -3 -4 -3 -3 -2 -1 0 0 -0 -0 -0 0 -0 -1 -1 -1 -2 -2 -1 0 1 1 1 -0 -2 -2 1 1 1 2 3 1 -0 -1 1 2 2 1 0 -1
-2 -2 -3 -2 -2 -2 -2 -2 -2 -2 -2 -2 -2 -2 -2 -3 -3 -2 -0 0 0 0 0 -0 1 1 1 -3 -3 -3 -1 -1 -0 -0 -0 0 0 1 1 1 1 -0 -1 -3 -2 -2 -2 -1 0 1 2 1 -1 -2 -2 -0 1 2 3 3 1 -1 -2 -1 1 1 0 -1 -0
-3 -3 -2 -2 -2 -2 -2 -2 -3 -3 -2 -2 -2 -2 -2 -2 -2 -1 0 1 1 1 0 0 1 0 -2 -3 -3 -2 -0 -0 -0 -0 -1 -1 -1 -0 0 1 2 1 0 -0 1 0 -0 -1 -0 0 1 2 1 -0 -1 -1 1 1 1 1 -0 -1 -1 -1 -0 -0 -1 0 3
-3 -3 -2 -2 -2 -2 -2 -2 -2 -2 -2 -2 -2 -2 -1 -1 -1 -0 0 0 0 -1 -1 -0 1 0 -1 -2 -1 -1 -0 0 -0 -1 -2 -2 -2 -1 -0 1 2 2 1 1 2 2 0 -2 -2 -0 1 2 3 2 2 1 1 0 -1 -2 -1 -0 -0 -1 -2 -2 -0 3 6
-2 -2 -2 -2 -2 -2 -2 -2 -2 -1 -1 -1 -1 -1 -1 -1 -0 0 -0 -1 -1 -2 -1 -0 0 1 2 1 1 0 0 0 -1 -2 -3 -2 -1 -0 1 2 2 2 2 1 2 1 0 -2 -1 0 1 2 4 5 6 5 3 1 -0 -1 -1 -1 -1 -2 -2 0 3 5 7
-2 -2 -1 -2 -2 -2 -2 -2 -1 -1 -1 -1 -1 -1 -1 -1 -0 -0 -1 -2 -2 -1 -0 0 0 1 2 3 2 1 -0 0 -1 -2 -3 -2 -1 0 1 1 1 1 1 1 -0 -1 -0 -0 1 1 2 3 4 6 7 7 5 3 1 -0 -0 -1 -1 -1 3 5 7 7 10
-1 -1 -1 -1 -2 -2 -2 -1 -1 -0 -0 -1 -1 -1 -1 -1 -1 -1 -1 -2 -2 -1 0 1 1 1 1 2 1 0 -1 -1 -2 -2 -2 -2 -2 -1 -0 0 0 0 0 -1 -2 -1 0 2 3 3 3 3 4 5 6 6 5 3 1 0 0 1 2 5 7 9 9 10 11
-1 -1 -1 -1 -2 -2 -2 -1 -0 -0 -0 -1 -1 -0 0 -0 -1 -1 -1 -0 -1 -1 -0 1 2 1 1 0 -0 -0 -1 -2 -2 -2 -1 -1 -1 -1 -0 0 1 0 -1 -2 -2 -2 0 2 3 4 5 5 6 5 4 4 2 1 0 1 2 4 7 9 9 10 9 8 6
-1 -1 -1 -2 -2 -2 -2 -1 -1 -1 -1 -1 -0 0 1 0 -0 -0 0 1 -0 -0 -0 -0 1 1 1 0 -1 -1 -0 -2 -2 -1 0 1 1 1 1 2 2 0 -2 -4 -3 -3 -3 -1 1 3 6 7 7 5 3 1 1 1 2 2 4 7 8 8 8 7 6 4 2
-1 -1 -2 -2 -2 -2 -2 -1 -1 -1 -1 -1 -0 -0 0 0 0 1 0 -0 -0 0 1 -0 -1 -1 -0 -0 -0 -0 -0 -0 -1 -0 1 2 2 2 2 2 1 -1 -4 -6 -6 -5 -4 -2 1 4 6 6 5 3 2 1 2 3 3 3 6 7 7 6 5 4 3 2 1
-2 -2 -2 -2 -2 -2 -1 -1 -1 -1 -1 -1 -1 -1 -1 -0 1 1 0 -0 -0 1 1 -0 -2 -2 -2 -2 -1 -1 -0 0 1 1 2 2 2 2 2 2 -1 -5 -7 -8 -7 -4 0 4 5 6 5 4 4 2 1 0 2 3 4 6 8 7 5 3 2 2 2 1 -1
-2 -2 -2 -2 -2 -1 -1 -1 -1 -1 -1 -1 -1 -1 -1 -0 0 1 1 1 1 1 1 0 -1 -1 -2 -2 -1 -1 -0 1 3 4 3 2 2 3 3 1 -4 -8 -8 -5 0 5 8 8 6 4 3 3 6 5 1 -0 3 6 8 9 8 6 4 2 2 2 1 -1 -2
-2 -2 -2 -2 -1 -0 -0 -0 -1 -1 -0 -0 -0 -1 -1 -1 0 1 1 1 1 1 1 1 1 1 1 1 1 1 1 1 3 4 4 3 2 2 1 -2 -6 -5 -3 1 5 9 10 7 5 4 6 11 16 13 8 3 8 11 11 8 6 6 6 6 5 3 2 -0 -1
-2 -2 -2 -2 -1 -0 0 0 -0 -1 -1 -1 -1 -1 -1 -1 -0 0 1 0 1 2 2 3 2 2 2 1 2 2 2 1 1 1 2 3 2 0 -2 -4 -4 -0 3 3 12 21 23 10 6 7 10 15 15 12 9 10 14 13 9 4 5 6 6 6 5 4 4 3 3
-2 -2 -2 -3 -2 -1 0 1 -0 -1 -1 -1 0 -0 -1 -2 -1 -1 -1 -1 -0 1 3 4 2 1 -0 -1 2 3 3 2 -1 -2 -1 1 1 -1 -4 -5 0 4 6 6 51 57 38 8 7 8 10 9 8 8 11 16 15 9 2 -1 2 3 3 3 3 3 4 5 5
-2 -2 -3 -4 -3 -1 0 1 1 -0 -0 -0 0 -0 -2 -3 -2 -2 -2 -3 -2 1 3 3 1 -1 -2 -2 1 3 3 2 0 -1 -2 -3 -3 -4 -4 -3 2 3 7 24 92 76 30 5 7 8 8 5 6 9 14 17 10 3 -2 -2 -1 1 2 2 2 2 2 2 4
-3 -3 -4 -4 -3 -1 1 2 1 1 -0 -1 -1 -2 -3 -3 -2 -2 -3 -3 -2 1 2 2 -0 -1 -0 -0 1 1 0 -0 -0 -0 -2 -4 -6 -7 -5 -0 2 0 13 61 80 53 15 2 4 6 7 5 6 8 11 11 6 1 -2 -2 -1 -0 1 1 1 1 1 1 2
-3 -4 -3 -3 -2 -0 1 1 1 -0 -1 -2 -2 -3 -3 -2 -1 -2 -3 -2 -1 -1 0 1 2 3 3 1 -0 -1 -1 -1 -2 -1 -1 -1 -4 -5 -3 -0 -0 3 25 83 54 20 -4 -5 -2 1 4 4 4 4 6 7 4 0 -3 -3 -2 -2 -2 -2 -1 -1 -1 -1 -0
-3 -3 -2 -2 -1 -0 -0 -1 -1 -2 -2 -3 -2 -2 -2 -2 -1 -2 -2 -2 -3 -5 -4 -0 4 6 4 -0 -0 -1 -1 -2 -2 -2 -1 -0 -2 -2 -1 1 -1 17 45 72 30 3 -9 -9 -7 -5 -2 -0 -0 2 4 5 3 1 -0 -1 -2 -4 -4 -4 -4 -5 -5 -6 -7
-3 -2 -1 -1 -0 -1 -1 -2 -2 -2 -2 -2 -2 -2 -2 -2 -2 -2 -4 -5 -7 -7 -4 1 5 4 2 -1 -1 -2 -4 -4 -2 -1 -1 -2 -4 -4 -2 0 2 28 56 60 11 -7 -8 -9 -9 -7 -5 -4 -4 -2 -1 1 1 1 1 2 -0 -2 -3 -4 -4 -5 -7 -8 -10
-2 -2 -1 -1 -0 -1 -2 -2 -1 -1 -2 -2 -1 -1 -2 -2 -3 -4 -5 -7 -6 -3 2 6 6 5 4 2 -1 -4 -5 -4 -2 -1 -2 -3 -4 -4 -4 -3 3 28 51 52 6 -8 -6 -6 -7 -8 -7 -5 -4 -4 -3 -3 -3 -2 -1 0 1 1 0 -1 -1 -2 -3 -4 -6
-2 -2 -1 -0 -0 -2 -3 -2 -1 -1 -2 -2 -1 -1 -1 -1 -2 -2 -3 -5 -5 -2 1 4 5 6 5 3 -1 -3 -4 -4 -3 -2 -3 -3 -3 -3 -4 -7 1 26 49 51 9 -4 -4 -4 -5 -6 -7 -7 -6 -5 -4 -3 -3 -3 -2 -1 -0 1 2 2 1 1 1 -1 -1
-2 -2 -1 0 -1 -2 -3 -2 -1 -1 -2 -1 -1 -1 -1 -0 0 -0 -2 -4 -6 -6 -5 -4 -1 1 1 -0 -3 -4 -5 -4 -3 -2 -2 -2 -1 -2 -4 -8 -5 21 50 58 16 -1 -3 -3 -3 -3 -4 -5 -6 -6 -5 -4 -2 -2 -1 -1 -0 0 1 1 2 2 1 -1 -1
-2 -2 -1 0 -1 -2 -3 -2 -1 -1 -1 -0 -1 -1 -1 -1 -2 -3 -4 -7 -7 -6 -5 -4 -3 -1 1 2 -2 -4 -5 -3 -1 -1 -2 -2 -2 -2 -5 -8 -11 14 45 62 20 1 -4 -4 -2 -2 -2 -3 -4 -5 -5 -5 -4 -2 -2 -1 -0 -0 -0 -0 1 1 0 -2 -4
-2 -2 -1 -0 -1 -2 -3 -2 -2 -1 -1 -1 -1 -1 -1 -2 -4 -5 -7 -8 -6 -4 -3 -1 0 3 5 7 4 0 -2 -2 -1 -1 -2 -3 -3 -4 -5 -7 -10 9 36 57 20 2 -4 -5 -3 -1 0 -1 -3 -5 -6 -6 -6 -5 -4 -2 -2 -1 -1 -1 -0 0 -0 -2 -6
-2 -2 -1 -1 -2 -3 -3 -3 -2 -2 -2 -2 -3 -3 -2 -2 -3 -4 -5 -6 -5 -4 -3 -2 -0 1 3 4 4 2 -0 -2 -0 0 0 -2 -4 -5 -5 -6 -9 4 26 49 17 2 -2 -5 -3 -0 1 1 -2 -4 -5 -7 -7 -7 -5 -4 -3 -2 -2 -1 -0 1 0 -2 -7
-2 -1 -1 -1 -2 -3 -4 -3 -2 -2 -3 -3 -3 -3 -3 -3 -3 -3 -4 -6 -6 -5 -5 -4 -3 -3 -2 -2 -1 -0 -0 -0 1 2 2 -1 -3 -3 -4 -5 -10 -1 16 41 15 3 -2 -5 -4 -1 1 0 -1 -2 -3 -5 -5 -5 -4 -4 -3 -3 -2 -1 -1 0 -0 -2 -7
-1 -1 -0 -0 -2 -3 -4 -4 -3 -3 -3 -3 -2 -2 -2 -3 -3 -3 -4 -6 -7 -7 -6 -5 -4 -3 -3 -2 -1 -0 0 1 1 2 1 -1 -3 -3 -3 -6 -10 -6 8 31 16 7 0 -7 -7 -5 -3 -2 -2 -2 -2 -2 -3 -4 -4 -4 -3 -3 -2 -2 -2 -1 -2 -3 -6
-1 -0 0 0 -1 -3 -4 -3 -3 -3 -3 -2 -1 -1 -1 -2 -3 -3 -4 -5 -5 -6 -5 -4 -3 -1 -1 -0 0 -0 -0 -1 0 1 0 -2 -3 -2 -2 -6 -9 -7 1 18 17 13 5 -5 -10 -9 -6 -3 -2 -2 -2 -2 -2 -2 -3 -3 -3 -2 -2 -2 -2 -2 -2 -3 -5
-1 -0 1 1 -1 -3 -3 -3 -2 -2 -2 -2 -2 -2 -2 -2 -1 -2 -3 -3 -3 -2 -2 -2 -0 1 1 1 -0 -1 -2 -1 -0 0 -0 -1 -2 -1 -2 -5 -6 -7 -3 7 15 15 10 2 -7 -10 -9 -4 -2 -2 -2 -2 -1 -1 -1 -2 -3 -3 -3 -3 -3 -3 -3 -3 -5
-2 -0 1 1 -1 -2 -3 -2 -1 -1 -1 -1 -2 -2 -2 -0 0 -1 -2 -3 -1 -0 1 1 2 2 2 1 -1 -2 -2 -2 -1 -0 0 0 -0 -1 -2 -4 -5 -6 -5 1 9 12 11 10 1 -7 -10 -6 -3 -3 -3 -3 -3 -3 -3 -3 -4 -5 -6 -6 -5 -4 -4 -4 -5
-2 -1 -0 0 -1 -2 -2 -2 -2 -1 -1 -1 -1 -0 1 2 0 -2 -4 -3 -1 1 2 2 2 3 2 1 -1 -2 -3 -2 -1 -0 1 1 -0 -1 -3 -5 -5 -6 -6 -3 4 8 10 11 7 -1 -7 -9 -7 -5 -4 -5 -7 -7 -7 -5 -5 -6 -7 -8 -7 -6 -6 -5 -5
Height
1536 1534 1532 1530 1528 1526 1524 1522 1521 1519 1517 1515 1513 1511 1509 1507 1505 1504 1502 1501 1499 1498 1497 1495 1494 1492 1491 1489 1488 1486 1485 1484 1483 1481 1480 1478 1477 1475 1474 1472 1471 1469 1468 1466 1465 1463 1463 1462 1460 1459 1457 1456 1454 1453 1452 1451 1450 1449 1448 1448 1448 1448 1446 1445 1443 1443 1442 1441 1440
1535 1533 1531 1529 1528 1525 1523 1521 1519 1518 1516 1514 1512 1510 1508 1506 1505 1503 1502 1500 1499 1498 1496 1494 1493 1491 1490 1488 1487 1485 1484 1483 1482 1480 1479 1477 1476 1474 1473 1471 1470 1468 1467 1466 1464 1463 1462 1460 1459 1457 1456 1454 1453 1452 1451 1450 1449 1448 1448 1448 1447 1446 1444 1443 1442 1441 1440 1439 1438
1534 1532 1530 1528 1526 1524 1522 1520 1518 1516 1515 1513 1511 1509 1508 1506 1504 1503 1501 1500 1498 1497 1495 1494 1492 1490 1488 1487 1486 1485 1483 1482 1481 1479 1478 1476 1474 1473 1472 1470 1468 1467 1466 1465 1463 1462 1460 1459 1458 1456 1455 1453 1452 1451 1449 1448 1448 1448 1447 1446 1445 1444 1443 1442 1441 1440 1439 1438 1437
1533 1531 1529 1527 1525 1523 1521 1519 1517 1515 1513 1512 1510 1508 1507 1505 1503 1502 1501 1499 1498 1496 1495 1493 1491 1489 1488 1487 1485 1484 1483 1482 1480 1478 1477 1475 1473 1472 1470 1469 1468 1466 1465 1463 1462 1461 1459 1458 1456 1455 1453 1452 1450 1449 1448 1448 1447 1447 1446 1445 1444 1443 1442 1441 1439 1438 1438 1436 1435
1532 1530 1528 1526 1524 1522 1520 1518 1516 1514 1513 1511 1509 1508 1506 1504 1503 1502 1500 1498 1497 1495 1494 1492 1491 1489 1488 1486 1485 1483 1482 1481 1480 1478 1475 1473 1472 1470 1469 1468 1466 1465 1463 1462 1461 1459 1458 1456 1455 1453 1452 1451 1449 1448 1447 1446 1446 1445 1444 1443 1442 1441 1440 1439 1438 1437 1436 1435 1434
1531 1529 1527 1525 1523 1521 1519 1517 1515 1513 1512 1510 1508 1507 1505 1504 1503 1501 1500 1498 1496 1495 1493 1492 1490 1489 1487 1486 1484 1483 1482 1480 1478 1476 1474 1472 1471 1469 1468 1466 1465 1463 1462 1461 1459 1458 1456 1455 1453 1452 1451 1449 1448 1447 1446 1445 1444 1443 1442 1442 1441 1440 1439 1438 1437 1436 1435 1434 1433
1530 1528 1526 1524 1522 1520 1518 1516 1514 1513 1511 1509 1508 1506 1505 1503 1502 1501 1499 1497 1496 1494 1493 1491 1490 1488 1487 1485 1484 1483 1481 1478 1476 1474 1473 1471 1469 1468 1466 1465 1463 1462 1461 1460 1458 1457 1455 1454 1452 1451 1449 1448 1446 1445 1445 1444 1443 1442 1441 1440 1439 1438 1437 1436 1435 1434 1433 1432 1432
1530 1528 1525 1523 1521 1519 1517 1515 1513 1512 1510 1509 1508 1506 1504 1503 1502 1500 1498 1497 1495 1494 1492 1491 1489 1488 1486 1484 1483 1482 1479 1477 1475 1473 1472 1470 1468 1467 1465 1463 1462 1461 1460 1458 1457 1455 1454 1452 1451 1449 1448 1446 1445 1444 1443 1443 1442 1441 1440 1438 1437 1436 1436 1434 1434 1433 1432 1431 1431
1528 1526 1524 1522 1520 1518 1517 1515 1513 1512 1510 1508 1507 1506 1504 1503 1501 1499 1498 1496 1495 1493 1492 1490 1488 1487 1485 1484 1482 1480 1478 1476 1474 1472 1471 1469 1467 1465 1464 1462 1461 1459 1458 1457 1455 1454 1452 1450 1449 1447 1446 1445 1444 1443 1441 1441 1440 1439 1438 1437 1436 1435 1434 1433 1433 1432 1431 1431 1430
1527 1525 1523 1521 1519 1518 1516 1514 1513 1511 1510 1508 1507 1505 1504 1503 1501 1499 1497 1496 1494 1493 1491 1490 1488 1486 1484 1483 1481 1478 1477 1475 1473 1471 1470 1468 1466 1464 1463 1461 1459 1458 1456 1455 1453 1452 1450 1448 1447 1446 1444 1443 1442 1441 1440 1439 1439 1438 1436 1435 1434 1433 1433 1432 1432 1431 1431 1430 1430
1526 1524 1523 1521 1519 1517 1516 1514 1512 1511 1509 1508 1506 1505 1503 1502 1500 1498 1497 1496 1494 1492 1491 1489 1487 1485 1483 1481 1479 1478 1476 1474 1473 1471 1469 1467 1465 1463 1462 1460 1458 1457 1455 1453 1452 1450 1448 1447 1445 1443 1443 1442 1441 1440 1439 1438 1437 1436 1435 1434 1433 1433 1432 1431 1431 1430 1430 1430 1429
1526 1524 1522 1521 1519 1517 1515 1514 1512 1510 1509 1508 1506 1504 1503 1501 1499 1498 1497 1495 1493 1492 1490 1488 1486 1485 1483 1481 1479 1477 1475 1473 1472 1470 1468 1466 1464 1462 1460 1459 1457 1455 1453 1452 1450 1448 1447 1445 1443 1442 1441 1440 1439 1438 1437 1436 1435 1434 1433 1433 1432 1431 1431 1430 1430 1430 1430 1429 1429
1525 1523 1522 1520 1518 1517 1515 1513 1512 1510 1509 1507 1506 1504 1503 1501 1499 1498 1496 1494 1493 1491 1489 1488 1486 1484 1482 1480 1478 1476 1475 1473 1471 1469 1467 1465 1463 1461 1459 1457 1455 1453 1452 1450 1448 1447 1445 1443 1442 1440 1439 1438 1437 1437 1436 1435 1434 1433 1432 1432 1431 1430 1430 1430 1430 1430 1429 1429 1428
1525 1523 1522 1520 1518 1517 1515 1513 1512 1510 1509 1507 1506 1504 1503 1501 1499 1497 1496 1494 1492 1490 1488 1487 1485 1483 1482 1480 1478 1476 1474 1472 1470 1468 1466 1464 1462 1460 1458 1456 1454 1452 1450 1448 1446 1445 1443 1441 1440 1438 1437 1436 1435 1434 1434 1433 1433 1432 1431 1431 1430 1430 1430 1430 1430 1429 1429 1428 1427
1525 1523 1522 1520 1518 1516 1515 1513 1512 1510 1509 1507 1506 1504 1502 1500 1499 1497 1495 1493 1492 1490 1488 1486 1484 1483 1481 1479 1478 1476 1473 1472 1469 1467 1465 1463 1461 1459 1457 1454 1452 1450 1448 1446 1444 1443 1441 1440 1438 1437 1436 1434 1433 1433 1432 1432 1431 1431 1430 1430 1430 1430 1430 1429 1429 1429 1428 1428 1428
1525 1523 1521 1519 1518 1516 1514 1513 1512 1510 1508 1507 1505 1504 1502 1500 1498 1497 1495 1493 1492 1490 1488 1486 1484 1482 1481 1479 1477 1475 1473 1471 1469 1467 1464 1462 1460 1458 1455 1453 1451 1448 1446 1444 1442 1440 1439 1438 1437 1436 1434 1433 1432 1431 1430 1430 1430 1430 1430 1430 1430 1430 1429 1429 1428 1428 1428 1428 1428
1525 1523 1521 1519 1518 1516 1514 1513 1512 1510 1509 1507 1505 1503 1502 1500 1498 1497 1495 1493 1492 1490 1488 1486 1484 1482 1480 1478 1477 1475 1473 1470 1468 1466 1464 1462 1459 1457 1454 1452 1449 1447 1444 1442 1440 1438 1437 1436 1436 1435 1433 1432 1431 1430 1429 1429 1429 1429 1430 1430 1430 1429 1429 1429 1428 1428 1428 1428 1427
1524 1523 1521 1519 1518 1516 1514 1513 1512 1510 1508 1507 1505 1503 1502 1500 1498 1497 1495 1493 1492 1490 1488 1486 1484 1482 1480 1478 1476 1474 1472 1470 1468 1466 1463 1461 1458 1456 1453 1450 1448 1445 1443 1441 1439 1438 1436 1435 1434 1433 1432 1431 1430 1429 1429 1429 1429 1429 1430 1429 1429 1429 1429 1428 1429 1428 1428 1428 1427
1524 1523 1521 1519 1518 1516 1515 1513 1512 1510 1509 1507 1505 1503 1502 1500 1498 1497 1495 1493 1491 1489 1488 1486 1484 1482 1480 1478 1476 1474 1472 1470 1467 1465 1463 1460 1458 1455 1452 1449 1447 1444 1443 1440 1439 1437 1435 1434 1432 1431 1430 1429 1428 1428 1429 1429 1429 1429 1429 1429 1429 1429 1429 1429 1429 1429 1428 1428 1427
1524 1523 1521 1519 1518 1517 1515 1514 1512 1511 1509 1507 1505 1503 1501 1500 1498 1496 1495 1493 1491 1489 1488 1486 1484 1482 1480 1478 1476 1473 1471 1469 1467 1464 1462 1459 1457 1454 1451 1448 1446 1444 1442 1440 1438 1436 1433 1430 1429 1428 1428 1428 1428 1429 1429 1429 1429 1429 1429 1429 1429 1429 1429 1429 1429 1429 1428 1427 1426
1525 1523 1521 1520 1518 1517 1516 1514 1513 1511 1509 1507 1505 1503 1501 1500 1498 1496 1494 1493 1491 1489 1488 1486 1484 1482 1479 1477 1475 1473 1471 1468 1466 1464 1461 1458 1456 1453 1450 1448 1446 1443 1442 1439 1435 1431 1428 1427 1427 1427 1427 1428 1428 1429 1429 1429 1429 1429 1429 1429 1429 1429 1429 1429 1429 1428 1428 1426 1425
1525 1523 1522 1520 1518 1517 1516 1514 1513 1511 1509 1507 1505 1503 1501 1499 1498 1496 1494 1493 1491 1489 1487 1485 1483 1481 1479 1477 1474 1472 1470 1468 1466 1463 1461 1458 1455 1453 1450 1448 1445 1443 1439 1435 1431 1428 1427 1427 1427 1428 1428 1428 1429 1430 1430 1429 1429 1429 1429 1429 1429 1429 1429 1429 1428 1428 1427 1426 1425
1525 1523 1522 1520 1519 1518 1516 1514 1513 1511 1509 1507 1505 1503 1501 1499 1498 1496 1494 1492 1491 1489 1487 1485 1483 1481 1479 1477 1474 1472 1470 1468 1465 1463 1461 1458 1455 1452 1450 1447 1444 1441 1437 1433 1430 1430 1430 1429 1429 1429 1429 1429 1429 1429 1429 1429 1429 1429 1429 1429 1429 1429 1429 1429 1428 1428 1427 1426 1425
1525 1524 1522 1521 1519 1518 1516 1514 1513 1511 1509 1507 1505 1503 1501 1499 1498 1496 1494 1492 1490 1488 1487 1485 1483 1480 1478 1477 1474 1473 1470 1468 1465 1463 1460 1458 1455 1452 1449 1447 1443 1440 1436 1432 1434 1435 1433 1431 1430 1430 1429 1429 1428 1428 1428 1428 1428 1428 1428 1429 1429 1429 1428 1428 1428 1428 1427 1426 1425
1526 1524 1522 1521 1519 1518 1516 1514 1513 1511 1509 1507 1505 1503 1502 1499 1498 1496 1494 1492 1490 1488 1486 1484 1482 1480 1478 1477 1475 1473 1471 1468 1465 1463 1460 1458 1455 1453 1450 1447 1443 1440 1436 1435 1441 1439 1434 1433 1432 1431 1430 1430 1429 1428 1428 1428 1428 1428 1429 1429 1429 1429 1429 1428 1428 1427 1427 1426 1425
1526 1524 1522 1521 1519 1518 1516 1514 1513 1511 1509 1507 1505 1503 1502 1500 1498 1496 1494 1492 1490 1488 1486 1483 1482 1480 1479 1477 1475 1473 1471 1468 1466 1463 1461 1458 1456 1453 1450 1447 1444 1440 1438 1441 1442 1439 1436 1436 1435 1433 1432 1431 1430 1429 1429 1428 1429 1430 1430 1430 1430 1430 1429 1428 1428 1427 1426 1425 1425
1526 1524 1522 1521 1519 1518 1516 1514 1513 1511 1509 1507 1505 1503 1502 1500 1498 1497 1494 1493 1490 1488 1485 1483 1482 1481 1479 1478 1475 1473 1471 1469 1466 1464 1462 1459 1457 1454 1451 1448 1445 1441 1441 1444 1442 1439 1438 1438 1437 1436 1434 1432 1431 1431 1430 1430 1431 1431 1432 1431 1431 1430 1430 1429 1428 1427 1426 1425 1425
1526 1524 1522 1521 1519 1518 1516 1514 1512 1510 1508 1507 1505 1504 1502 1501 1499 1497 1495 1493 1490 1488 1485 1483 1483 1481 1480 1478 1476 1474 1472 1469 1467 1465 1463 1461 1458 1456 1453 1450 1446 1444 1445 1446 1443 1441 1440 1439 1439 1438 1437 1435 1434 1433 1433 1432 1433 1433 1432 1432 1432 1431 1430 1429 1428 1428 1427 1426 1425
1526 1524 1523 1521 1520 1518 1516 1514 1512 1510 1509 1508 1506 1505 1503 1501 1499 1497 1495 1493 1490 1488 1486 1484 1483 1482 1480 1478 1477 1474 1472 1470 1468 1466 1464 1462 1460 1458 1455 1452 1448 1447 1448 1448 1445 1443 1443 1442 1440 1439 1438 1437 1436 1435 1434 1434 1434 1433 1433 1433 1432 1432 1431 1430 1429 1428 1427 1426 1426
1526 1524 1523 1522 1520 1518 1516 1514 1513 1511 1509 1508 1507 1505 1503 1502 1500 1498 1495 1493 1491 1488 1487 1485 1483 1482 1481 1479 1477 1475 1473 1471 1469 1468 1466 1463 1461 1459 1457 1454 1451 1450 1450 1450 1447 1445 1444 1443 1442 1441 1440 1438 1438 1437 1436 1436 1435 1435 1434 1434 1433 1433 1432 1431 1430 1429 1428 1427 1426
1526 1525 1523 1522 1520 1518 1516 1514 1513 1511 1510 1509 1507 1506 1504 1502 1500 1498 1496 1494 1492 1489 1488 1485 1484 1482 1481 1480 1478 1476 1474 1472 1471 1469 1467 1465 1463 1461 1458 1456 1453 1452 1452 1451 1449 1447 1446 1445 1443 1442 1441 1440 1438 1438 1438 1437 1437 1436 1435 1435 1434 1433 1433 1432 1430 1429 1428 1427 1426
1527 1525 1523 1522 1520 1519 1517 1515 1513 1512 1511 1509 1508 1506 1504 1502 1501 1499 1497 1495 1493 1490 1488 1485 1483 1482 1481 1480 1478 1477 1475 1473 1472 1470 1468 1467 1465 1463 1460 1458 1455 1454 1454 1453 1450 1448 1447 1446 1445 1443 1442 1441 1440 1439 1438 1438 1437 1437 1436 1435 1435 1434 1433 1432 1431 1430 1428 1428 1426
1527 1525 1524 1523 1521 1519 1517 1515 1514 1513 1511 1509 1508 1506 1504 1503 1501 1499 1497 1495 1493 1491 1489 1486 1484 1483 1481 1480 1479 1478 1476 1475 1473 1472 1470 1468 1466 1464 1462 1460 1457 1456 1456 1455 1452 1450 1449 1448 1446 1445 1443 1442 1441 1440 1439 1438 1438 1437 1436 1436 1435 1434 1433 1433 1432 1430 1429 1428 1427
1527 1526 1524 1523 1521 1519 1518 1516 1514 1513 1511 1510 1508 1507 1505 1503 1501 1499 1498 1496 1494 1492 1490 1488 1486 1484 1483 1481 1480 1478 1477 1476 1474 1473 1471 1470 1468 1466 1464 1462 1459 1458 1458 1456 1453 1452 1450 1449 1448 1446 1444 1443 1442 1441 1440 1439 1439 1438 1437 1436 1435 1434 1433 1433 1432 1431 1430 1428 1427
1527 1526 1524 1523 1522 1520 1518 1516 1515 1513 1512 1510 1508 1507 1505 1503 1502 1500 1498 1496 1495 1493 1491 1489 1487 1485 1483 1482 1480 1479 1478 1477 1475 1474 1472 1471 1469 1467 1465 1463 1461 1460 1459 1457 1455 1453 1452 1450 1449 1447 1446 1444 1443 1442 1441 1440 1440 1439 1438 1437 1436 1435 1434 1433 1432 1431 1430 1429 1428
1528 1526 1525 1523 1522 1520 1518 1517 1515 1513 1512 1510 1509 1507 1506 1504 1502 1500 1499 1497 1495 1493 1492 1489 1488 1486 1484 1483 1481 1480 1478 1477 1476 1474 1473 1471 1470 1468 1466 1465 1463 1461 1460 1458 1457 1455 1454 1452 1451 1449 1447 1445 1443 1442 1442 1441 1440 1440 1439 1438 1437 1435 1434 1433 1433 1432 1430 1429 1428
1528 1527 1525 1524 1522 1520 1519 1517 1515 1514 1512 1511 1509 1508 1506 1504 1503 1501 1499 1497 1496 1494 1492 1490 1488 1487 1485 1483 1482 1481 1479 1478 1477 1475 1474 1472 1470 1469 1467 1466 1464 1463 1461 1459 1458 1457 1456 1454 1452 1450 1448 1447 1445 1443 1442 1441 1441 1440 1439 1438 1437 1436 1435 1434 1433 1432 1431 1429 1428
1528 1527 1525 1524 1523 1521 1519 1518 1516 1514 1513 1511 1510 1508 1507 1505 1503 1501 1499 1498 1496 1494 1493 1491 1489 1488 1486 1484 1483 1482 1481 1479 1478 1476 1475 1473 1471 1470 1468 1467 1465 1464 1463 1462 1460 1459 1458 1456 1454 1452 1450 1448 1447 1445 1444 1443 1441 1440 1439 1438 1438 1437 1436 1434 1433 1432 1431 1430 1428
1529 1527 1526 1524 1523 1521 1519 1518 1516 1515 1513 1512 1510 1509 1507 1505 1503 1502 1500 1499 1497 1496 1494 1492 1490 1488 1487 1485 1484 1483 1481 1480 1479 1478 1476 1474 1473 1471 1470 1468 1467 1466 1464 1464 1462 1461 1459 1458 1456 1454 1452 1450 1448 1447 1445 1444 1443 1441 1440 1439 1438 1437 1435 1434 1433 1432 1431 1430 1429
1529 1528 1526 1525 1523 1521 1520 1518 1517 1515 1514 1512 1511 1509 1508 1506 1504 1503 1501 1500 1498 1496 1494 1493 1491 1489 1488 1486 1485 1483 1482 1481 1480 1478 1477 1475 1474 1473 1471 1469 1468 1467 1466 1465 1464 1462 1461 1459 1458 1455 1453 1451 1450 1448 1447 1445 1444 1443 1441 1439 1438 1437 1436 1434 1433 1432 1431 1430 1429
1529 1528 1526 1525 1523 1521 1520 1518 1517 1515 1514 1513 1511 1510 1508 1507 1505 1503 1502 1500 1499 1497 1495 1493 1492 1490 1488 1487 1485 1484 1483 1482 1481 1480 1478 1477 1475 1473 1472 1471 1469 1468 1467 1466 1465 1464 1462 1461 1459 1457 1455 1453 1451 1450 1448 1446 1445 1443 1442 1441 1439 1438 1436 1435 1433 1432 1431 1430 1429